Tracking 19192 objects as of 21-Jun-2018
HD Live streaming from Space Station
objects crossing your sky now

FENGYUN 1C DEB

Track FENGYUN 1C DEB now!
10-day predictions


NORAD ID: 35123
Int'l Code: 1999-025DLB
Perigee: 801.7 km
Apogee: 880.2 km
Inclination: 98.9 °
Period: 101.6 minutes
Semi major axis: 7211 km
RCS: 0.0015 m2 (small)
Launch date: May 10, 1999
Source: People's Republic of China (PRC)
Launch site: Taiyaun Space Center, China (TSC)

Note: This is SATELLITE DEBRIS
aabbcc
Your satellite tracking list
Your tracking list is empty




NASA's NSSDC Master Catalog

Two Line Element Set (TLE):
1 35123U 99025DLB 18169.06764518  .00000203  00000-0  12066-3 0  9994
2 35123  98.9135 269.1029 0054431 318.8405  40.8670 14.17498744506056
Source of the keplerian elements: AFSPC